{"data":{"norad_id":67419,"epoch":"2026-09-19T22:02:51.817920Z","epoch_age_seconds":125630,"freshness":"FRESH","line1":"1 67419U 26005R   26262.91865530  .00018657  00000+0  68558-3 0  9996","line2":"2 67419  42.9984 220.8747 0000530 281.6865  78.3927 15.27589045 38406","mean_motion":15.27589045,"eccentricity":5.3e-5,"inclination_deg":42.9984,"raan_deg":220.8747,"arg_perigee_deg":281.6865,"mean_anomaly_deg":78.3927,"bstar":0.00068558,"rev_number":3840,"period_min":94.266190551268,"perigee_km":482.65837076172,"apogee_km":483.38565361702,"semimajor_km":6861.1590121894,"source":"CELESTRAK","updated_at":"2026-09-20T09:00:43.522130Z"}}